This is the latest recevied weather packets stored in our database for station/object KM4NDN. If no packets are shown the sender has not sent any weather packets the latest 10 day(s).
| Time | Temp. | Humidity | Pressure | Rain* | Wind** | Luminosity | Snow |
|---|---|---|---|---|---|---|---|
| 1777904543 | 16.67° C | 56% | 1005.3 hPa | 0 mm | - | 574 W/m² | - |
| 1777904240 | 16.11° C | 55% | 1005.3 hPa | 0 mm | - | 564 W/m² | - |
| 1777903937 | 16.11° C | 56% | 1005.3 hPa | 0 mm | - | 531 W/m² | - |
| 1777903634 | 16.11° C | 57% | 1005.2 hPa | 0 mm | - | 496 W/m² | - |
| 1777903329 | 15.56° C | 56% | 1005.4 hPa | 0 mm | - | 508 W/m² | - |
| 1777903026 | 15.56° C | 57% | 1005.5 hPa | 0 mm | - | 493 W/m² | - |
| 1777902723 | 15.56° C | 57% | 1005.3 hPa | 0 mm | - | 480 W/m² | - |
| 1777902420 | 15.56° C | 57% | 1005.3 hPa | 0 mm | - | 473 W/m² | - |
| 1777902116 | 15.56° C | 57% | 1005.5 hPa | 0 mm | - | 461 W/m² | - |
| 1777901815 | 15° C | 58% | 1005.6 hPa | 0 mm | - | 446 W/m² | - |
| 1777901512 | 15° C | 57% | 1005.4 hPa | 0 mm | - | 449 W/m² | - |
| 1777901210 | 15° C | 57% | 1005.6 hPa | 0 mm | - | 407 W/m² | - |
| 1777900907 | 14.44° C | 59% | 1005.6 hPa | 0 mm | - | 394 W/m² | - |
| 1777900604 | 14.44° C | 58% | 1005.7 hPa | 0 mm | - | 337 W/m² | - |
| 1777900301 | 14.44° C | 58% | 1005.7 hPa | 0 mm | - | 354 W/m² | - |
| 1777899997 | 14.44° C | 58% | 1005.7 hPa | 0 mm | - | 332 W/m² | - |
| 1777899694 | 13.89° C | 59% | 1005.6 hPa | 0 mm | - | 323 W/m² | - |
| 1777899392 | 13.89° C | 58% | 1005.9 hPa | 0 mm | - | 298 W/m² | - |
| 1777899090 | 13.89° C | 59% | 1005.5 hPa | 0 mm | - | 293 W/m² | - |
| 1777898786 | 13.33° C | 60% | 1005.8 hPa | 0 mm | - | 333 W/m² | - |
| 1777898484 | 13.33° C | 60% | 1005.9 hPa | 0 mm | - | 161 W/m² | - |
| 1777898182 | 13.33° C | 60% | 1005.9 hPa | 0 mm | - | 165 W/m² | - |
| 1777897879 | 13.33° C | 59% | 1005.9 hPa | 0 mm | - | 151 W/m² | - |
| 1777897575 | 13.33° C | 59% | 1006.2 hPa | 0 mm | - | 182 W/m² | - |
| 1777897270 | 13.33° C | 59% | 1006 hPa | 0 mm | - | 222 W/m² | - |
* Rain latest hour (hover to see other rain measurements)
** Current wind speed in m/s (hover to see current wind gust speed)